Wetbulb
42.15 37.58 34.02 37.36 38.88 40.32 39.16 36.63 34.86 36.77 41.14 37.78 36.72 37.94 38.56 41.08 39.84 41.11 38.73 36.10 35.17 35.36 37.09 39.50 40.87 41.52 42.26 42.81 42.67 42.53 43.51 44.20 45.23 46.40 48.09 53.14 55.37 56.40 57.44 58.48 59.40 59.77 61.83 63.77
37.48 33.81 38.02 40.69 39.74 37.61 35.44 33.11 31.99 35.65 39.23 36.78 35.39 36.18 37.44 35.24 34.31 35.12 33.51 32.63 34.03 36.34 38.34 39.88 41.39 41.57 41.77 41.53 42.01 42.53 43.58 43.78 44.45 44.79 46.02 52.04 53.94 57.19 56.93 57.41 57.92 58.81 60.34 61.97
33.05 36.93 41.37 39.34 35.70 34.54 33.08 30.25 30.53 30.85 34.81 35.62 33.76 31.32 33.62 33.00 32.84 34.56 34.32 34.41 35.77 36.22 37.32 39.77 41.56 41.25 41.93 42.56 42.88 44.95 45.38 44.79 44.77 43.78 44.95 47.85 50.64 54.23 54.66 55.89 56.92 58.38 60.24 61.63
34.37 39.47 38.49 36.13 34.52 34.07 29.30 34.85 34.52 33.00 29.79 24.03 32.36 21.96 27.86 28.62 29.23 31.42 31.89 33.50 34.44 35.64 37.62 38.85 40.96 41.61 42.08 43.76 45.09 45.93 46.43 46.72 47.57 45.67 43.51 44.20 48.35 49.11 52.08 55.00 57.42 58.62 60.16 61.68
33.83 35.74 35.00 33.09 33.19 35.17 32.03 35.69 33.60 32.34 27.99 24.39 26.28 23.04 24.48 30.12 28.58 28.29 31.32 33.29 34.65 35.69 36.96 38.07 39.70 42.02 43.53 43.81 43.48 44.74 45.31 46.30 46.92 45.79 43.06 43.21 46.65 49.91 51.62 53.95 55.77 57.09 59.55 62.12
34.46 39.10 36.80 34.93 36.59 36.03 36.57 32.68 30.74 27.84 25.41 19.29 23.38 22.53 21.53 25.78 28.43 27.88 30.61 33.44 34.82 35.78 37.07 38.88 41.53 42.58 42.18 43.59 43.75 43.44 43.67 44.32 45.22 45.33 44.43 41.98 44.54 48.41 50.17 52.08 54.48 57.18 59.43 60.56
31.64 32.65 35.79 37.16 32.45 34.71 31.97 26.00 18.99 17.75 18.43 18.15 25.43 22.85 24.42 27.18 30.31 31.76 32.31 33.53 35.20 36.08 36.96 38.94 40.39 39.26 40.55 41.05 41.64 42.68 42.51 42.46 43.82 44.19 44.73 44.82 45.91 48.37 50.16 52.40 54.18 54.78 58.09 58.03
23.98 24.00 32.21 36.51 31.81 28.65 27.23 25.00 18.92 14.05 14.38 18.82 26.39 19.86 25.39 29.96 33.10 34.64 35.52 35.30 36.31 35.95 37.16 38.54 40.41 38.81 39.43 40.73 41.35 41.87 42.12 41.82 43.73 44.72 45.88 46.91 48.30 49.52 50.98 53.06 54.04 55.46 58.78 57.99
24.55 25.40 33.84 36.11 35.25 32.35 27.11 22.48 26.95 21.08 20.43 16.35 20.79 23.97 28.62 31.13 32.03 34.10 34.18 35.37 33.96 34.46 35.94 37.71 38.88 38.19 39.36 40.00 40.50 40.69 41.44 41.97 42.78 44.08 45.76 45.85 46.49 46.47 48.17 50.71 53.42 55.07 58.57 58.32
28.10 22.69 30.42 34.64 34.00 32.02 28.50 29.63 20.39 20.82 7.37 11.42 16.02 17.67 20.87 26.92 30.74 32.97 33.70 33.04 33.39 34.46 35.11 37.06 37.27 37.72 38.91 40.61 40.46 40.73 41.43 41.25 42.24 42.57 43.83 44.08 44.58 44.73 46.67 49.84 51.72 53.37 55.80 58.17
28.67 24.99 25.06 29.38 26.26 24.98 26.46 22.77 23.32 22.00 19.15 7.56 8.67 15.67 25.18 26.71 29.90 29.40 31.43 33.21 32.94 33.43 33.80 35.18 36.44 36.71 37.33 40.34 40.27 40.19 40.51 40.53 40.90 41.73 41.86 42.96 42.85 43.60 45.41 48.12 50.48 52.03 54.25 57.06
30.42 25.04 19.92 23.69 30.12 30.25 28.76 23.92 22.38 16.92 11.99 15.35 13.38 16.70 30.81 28.89 30.40 32.90 33.22 34.66 35.12 35.22 33.91 34.70 36.01 35.78 35.54 37.77 40.03 39.24 39.40 39.10 40.67 41.36 41.94 42.28 42.34 43.02 44.21 46.39 50.40 52.22 53.35 56.26
31.25 23.38 17.72 18.23 21.72 25.70 23.34 25.52 26.02 22.78 19.91 17.56 13.98 16.09 29.73 31.69 31.56 32.15 31.80 34.35 35.80 35.63 33.26 33.62 34.71 34.58 34.46 35.31 37.93 38.95 38.39 39.07 40.01 40.57 41.25 41.53 41.06 41.93 43.02 46.02 50.49 51.03 53.51 55.84
34.67 25.81 21.18 16.40 18.56 24.28 24.32 25.51 26.31 22.93 17.27 17.41 18.26 19.94 25.82 28.73 29.40 30.58 30.81 30.85 31.24 30.72 31.44 33.57 34.18 34.15 35.09 36.18 36.42 38.25 38.05 38.37 39.24 40.28 40.30 40.26 40.48 41.39 42.72 46.42 48.62 50.19 53.50 56.24
29.37 19.65 22.00 24.93 26.14 25.66 24.55 24.02 24.21 20.80 22.18 18.77 20.94 21.35 25.82 28.97 29.29 29.21 29.22 29.81 30.21 32.67 33.94 34.03 33.96 34.12 34.32 35.04 36.67 37.52 37.78 37.96 38.59 39.37 39.38 39.78 40.49 41.55 42.82 45.32 47.32 48.57 51.03 54.48
26.75 18.92 21.01 21.35 24.29 23.39 21.92 24.19 24.36 24.23 24.07 22.80 23.72 22.82 30.67 31.11 26.35 27.29 29.07 31.16 31.57 32.25 33.36 34.12 34.79 35.53 35.40 35.69 35.89 37.75 37.78 37.80 38.26 38.21 38.69 39.86 40.16 40.79 42.30 44.54 45.90 47.41 50.56 53.35
22.50 21.39 15.59 13.68 19.73 20.98 16.60 21.93 23.26 23.58 24.77 24.77 19.14 25.45 25.27 26.35 28.57 29.05 30.14 30.72 30.87 31.62 32.50 33.39 34.32 34.61 35.24 35.22 36.37 37.40 37.75 38.23 37.86 37.73 38.47 39.13 39.64 39.88 41.56 43.65 45.02 46.62 47.81 52.18
21.59 19.22 21.91 14.05 17.69 6.91 20.15 25.23 26.08 24.36 25.99 26.38 25.75 26.21 28.00 28.15 29.51 31.47 31.51 30.83 30.88 32.11 32.65 33.46 33.74 34.74 35.84 35.59 37.35 37.30 37.52 37.58 37.79 37.73 38.31 39.01 39.35 39.78 40.87 42.74 44.32 45.80 47.28 52.03
25.61 26.73 21.18 18.47 14.85 17.60 22.80 23.97 24.87 22.66 22.42 29.91 27.67 28.35 29.61 29.93 28.00 27.35 30.49 31.56 31.43 31.98 33.37 33.76 34.76 35.54 35.22 36.06 37.02 36.52 36.57 36.90 36.88 37.63 38.21 38.84 39.61 39.71 41.10 41.74 43.90 45.61 46.90 51.09
24.00 23.82 20.25 18.91 13.46 11.93 20.51 26.94 30.57 28.40 18.40 29.56 29.71 29.24 28.68 28.16 21.08 24.01 29.76 30.51 31.87 34.48 34.60 34.54 35.59 36.58 35.84 36.70 36.76 35.71 36.44 36.59 36.35 37.67 38.79 39.36 40.20 40.47 40.61 42.24 43.60 45.87 52.36 54.24
10.24 6.18 4.31 10.33 4.16 16.35 26.46 28.24 31.58 18.85 19.61 30.53 31.38 30.84 29.24 25.71 26.15 28.93 30.86 31.91 34.49 34.46 34.31 35.38 35.51 35.13 35.94 36.87 36.23 35.55 35.80 35.57 37.74 38.78 39.48 40.25 41.17 41.01 41.46 43.39 44.97 50.95 52.68 51.66
11.32 1.89 2.51 8.28 10.88 11.18 29.08 26.94 24.66 28.29 30.71 31.55 32.28 31.87 29.81 29.93 30.36 30.84 31.51 33.78 33.84 33.19 33.94 34.69 33.76 34.91 36.40 36.99 36.39 35.93 35.26 37.33 38.77 40.40 40.49 41.25 41.05 41.35 42.94 43.46 47.12 49.89 48.25 47.32
11.03 15.27 9.33 19.56 16.23 26.07 29.20 28.48 32.06 31.20 29.78 31.08 32.39 31.34 29.81 29.61 29.72 30.66 32.60 32.27 32.30 32.85 33.42 34.35 33.83 35.17 36.38 36.63 36.23 35.49 38.37 40.13 40.74 40.49 40.29 40.93 40.82 41.23 42.77 44.20 48.08 47.06 47.01 46.24
18.18 21.63 19.09 19.25 23.06 24.04 27.66 30.47 31.55 31.91 31.77 33.56 32.51 29.86 29.57 29.40 30.64 31.90 31.44 31.80 32.52 34.03 34.16 35.58 35.98 36.19 36.14 38.22 39.74 40.09 40.48 40.48 39.90 39.62 39.78 40.91 40.19 41.43 43.50 48.65 48.42 46.74 45.85 44.96
22.10 19.57 18.51 18.07 23.05 24.95 26.74 28.65 30.73 31.71 33.01 33.01 33.17 30.71 31.56 32.50 32.51 31.57 31.60 32.72 33.59 33.97 35.59 37.05 36.71 37.06 37.42 39.37 39.48 40.11 40.49 40.80 39.71 39.60 39.76 39.92 41.03 41.61 43.88 48.40 47.84 46.98 46.90 46.32
21.66 21.42 19.54 19.05 25.75 24.65 25.68 29.84 31.71 30.85 31.48 32.91 31.68 29.74 32.17 32.34 32.16 32.47 32.64 33.28 33.55 34.58 36.30 36.54 37.07 37.20 38.32 38.34 38.54 39.71 40.85 40.88 39.93 38.83 39.43 40.09 41.25 42.32 47.39 46.56 46.13 48.36 47.59 47.31
MSLP
1015.43 1016.20 1016.92 1017.16 1017.21 1017.33 1017.47 1017.52 1017.32 1016.65 1015.99 1015.70 1015.35 1015.15 1015.24 1014.88 1015.95 1016.94 1017.65 1017.97 1018.07 1018.15 1017.93 1017.30 1016.81 1016.45 1016.08 1015.62 1015.13 1014.69 1014.09 1013.51 1012.96 1012.45 1011.95 1011.37 1010.73 1010.25 1009.68 1009.07 1008.65 1008.37 1008.11 1007.76
1016.34 1016.93 1017.21 1017.11 1017.30 1017.48 1017.66 1017.92 1017.85 1017.26 1016.70 1016.81 1016.16 1015.84 1016.25 1016.86 1017.87 1018.45 1018.96 1019.19 1019.12 1018.76 1018.27 1017.77 1017.33 1016.87 1016.46 1016.08 1015.52 1015.07 1014.49 1013.88 1013.29 1012.82 1012.34 1011.85 1011.43 1010.29 1009.77 1008.82 1008.31 1007.97 1007.67 1007.42
1017.32 1017.54 1017.53 1017.62 1017.94 1018.14 1018.39 1018.83 1018.98 1018.99 1017.91 1017.48 1017.27 1016.64 1017.37 1018.41 1018.78 1019.22 1019.53 1019.70 1019.59 1019.49 1019.05 1018.42 1017.83 1017.37 1016.82 1016.23 1015.68 1015.13 1014.51 1013.95 1013.36 1012.84 1012.00 1011.59 1011.01 1010.50 1009.67 1009.22 1008.31 1007.63 1007.18 1006.93
1017.88 1017.93 1018.03 1018.20 1018.54 1018.92 1019.23 1019.33 1019.35 1019.24 1019.27 1018.92 1018.28 1018.11 1017.89 1018.79 1019.41 1019.77 1020.08 1020.03 1019.84 1019.57 1019.05 1018.60 1018.02 1017.39 1016.91 1016.26 1015.66 1015.06 1014.46 1013.78 1013.03 1012.79 1012.31 1011.51 1011.60 1010.83 1009.90 1009.62 1008.37 1007.58 1007.08 1006.37
1018.77 1018.78 1018.92 1019.12 1019.56 1019.48 1019.82 1019.76 1019.70 1019.31 1019.50 1019.72 1020.01 1020.33 1018.75 1019.13 1019.59 1020.06 1020.20 1020.06 1019.80 1019.42 1019.14 1018.67 1018.11 1017.51 1016.84 1016.17 1015.66 1015.09 1014.38 1013.86 1013.05 1012.74 1012.46 1012.10 1011.05 1010.78 1010.22 1008.69 1008.36 1007.44 1006.85 1006.04
1020.07 1019.90 1020.18 1020.34 1020.33 1020.56 1020.70 1020.61 1020.31 1020.75 1020.99 1021.01 1020.84 1021.20 1019.83 1019.72 1019.96 1019.97 1020.12 1019.94 1019.68 1019.36 1018.78 1018.35 1017.86 1017.29 1016.80 1016.12 1015.63 1015.05 1014.46 1013.96 1013.30 1012.81 1012.34 1011.62 1011.37 1010.34 1009.40 1008.16 1008.44 1007.23 1006.23 1005.41
1021.72 1021.10 1020.89 1020.79 1020.81 1020.90 1021.33 1021.96 1022.46 1022.25 1022.51 1022.50 1021.97 1021.73 1020.24 1020.18 1020.18 1020.08 1020.06 1019.82 1019.35 1019.19 1018.94 1018.35 1017.84 1017.17 1016.91 1016.35 1015.86 1015.25 1014.63 1014.04 1013.38 1012.71 1012.31 1011.77 1011.34 1010.59 1009.91 1009.40 1008.32 1007.03 1005.84 1005.00
1023.89 1022.38 1021.91 1021.80 1021.85 1022.29 1022.60 1023.08 1024.57 1024.97 1024.24 1023.30 1023.31 1022.38 1020.65 1020.41 1020.38 1020.10 1019.95 1019.78 1019.47 1019.13 1018.65 1018.12 1017.54 1017.26 1016.91 1016.45 1015.93 1015.42 1014.92 1014.38 1013.65 1013.00 1012.33 1011.71 1011.07 1010.59 1009.60 1008.58 1007.93 1007.01 1005.51 1004.86
1024.96 1023.74 1023.03 1022.81 1022.78 1023.08 1023.66 1024.37 1024.94 1025.58 1025.28 1024.82 1023.21 1021.98 1021.02 1020.88 1020.74 1020.26 1020.00 1019.73 1019.37 1018.85 1018.11 1017.71 1017.43 1017.23 1016.83 1016.49 1015.92 1015.50 1015.13 1014.57 1013.67 1013.04 1012.25 1011.58 1010.94 1009.59 1009.12 1008.27 1007.52 1006.30 1005.19 1004.55
1026.11 1025.43 1024.42 1023.89 1023.40 1023.62 1024.23 1024.74 1025.52 1026.45 1027.13 1026.37 1024.74 1023.47 1021.76 1021.23 1020.97 1020.73 1020.18 1019.80 1019.22 1018.64 1018.12 1017.77 1017.39 1017.15 1016.85 1016.40 1015.96 1015.40 1015.04 1014.76 1013.84 1013.28 1012.59 1011.67 1011.01 1010.00 1009.23 1008.10 1007.08 1006.10 1005.21 1004.30
1026.76 1026.94 1025.78 1024.99 1024.72 1024.71 1025.00 1025.39 1026.31 1027.31 1028.02 1027.90 1026.09 1023.79 1021.86 1021.36 1020.89 1020.61 1019.99 1019.56 1018.94 1018.30 1017.95 1017.50 1017.15 1016.90 1016.79 1016.33 1015.85 1015.38 1015.05 1014.70 1013.79 1013.28 1012.32 1011.63 1010.62 1009.69 1008.98 1007.74 1006.51 1005.99 1005.26 1004.44
1027.25 1027.37 1026.91 1026.07 1025.03 1025.01 1025.21 1025.84 1026.86 1028.54 1028.76 1028.59 1027.55 1023.01 1022.14 1021.17 1020.94 1020.43 1019.64 1019.03 1018.61 1018.07 1017.63 1017.44 1017.14 1016.74 1016.56 1016.32 1015.78 1015.34 1014.99 1014.54 1013.98 1013.29 1012.43 1011.58 1010.74 1009.83 1008.61 1007.38 1006.41 1005.60 1005.09 1004.43
1028.13 1028.41 1028.25 1026.76 1026.47 1026.11 1026.42 1026.70 1026.96 1028.01 1028.54 1027.67 1027.40 1023.25 1021.50 1020.79 1020.54 1020.02 1019.66 1019.03 1018.53 1017.99 1017.54 1017.36 1017.09 1016.80 1016.44 1016.10 1015.68 1015.20 1014.79 1014.38 1013.82 1013.24 1012.50 1011.55 1010.69 1009.66 1008.35 1007.47 1006.26 1005.52 1004.86 1004.13
1027.75 1028.27 1028.63 1028.19 1027.90 1027.81 1027.65 1027.30 1027.45 1027.78 1027.43 1026.40 1025.24 1023.66 1022.34 1021.19 1020.87 1020.05 1019.42 1018.98 1018.56 1018.30 1017.76 1017.46 1017.09 1016.66 1016.11 1015.54 1015.13 1014.91 1014.55 1014.35 1013.83 1013.31 1012.52 1011.42 1010.59 1009.84 1008.78 1007.47 1006.35 1005.58 1004.66 1003.94
1028.91 1029.23 1029.44 1028.88 1028.23 1027.78 1027.15 1026.61 1026.37 1026.56 1025.77 1026.03 1023.71 1023.47 1021.94 1021.27 1020.78 1020.34 1019.78 1019.09 1018.58 1018.22 1017.80 1017.49 1017.19 1016.70 1016.00 1015.26 1014.60 1014.10 1013.94 1013.90 1013.68 1013.15 1012.30 1011.46 1010.50 1009.49 1008.52 1007.44 1006.30 1005.72 1005.10 1004.09
1029.49 1029.27 1029.12 1028.15 1028.24 1027.78 1026.64 1025.69 1024.85 1024.47 1024.43 1024.26 1023.38 1022.66 1021.43 1020.78 1020.48 1020.13 1019.70 1019.21 1018.86 1018.47 1018.04 1017.56 1017.05 1016.37 1015.76 1015.12 1014.39 1013.89 1013.81 1013.59 1013.48 1012.84 1012.10 1011.21 1010.27 1009.17 1008.44 1007.34 1006.46 1005.80 1004.99 1004.03
1030.97 1029.96 1029.75 1028.36 1027.74 1027.16 1025.89 1024.31 1023.79 1023.52 1023.33 1023.02 1022.58 1021.66 1021.15 1020.60 1020.20 1019.90 1019.59 1019.27 1019.01 1018.55 1018.06 1017.57 1017.01 1016.49 1015.81 1015.12 1014.22 1013.85 1013.63 1013.30 1012.89 1012.49 1011.95 1011.03 1010.23 1009.17 1008.28 1007.48 1006.63 1005.77 1004.96 1004.08
1030.62 1031.23 1030.86 1029.39 1028.52 1027.28 1024.66 1023.48 1023.21 1023.22 1022.43 1022.00 1021.95 1021.42 1020.99 1020.46 1019.99 1019.72 1019.44 1019.22 1018.84 1018.40 1017.93 1017.47 1016.90 1016.33 1015.72 1014.98 1014.19 1013.76 1013.45 1013.18 1012.73 1012.31 1011.63 1010.94 1010.20 1009.31 1008.18 1007.43 1006.73 1005.79 1005.03 1004.08
1031.17 1031.80 1030.95 1030.31 1029.00 1026.99 1025.01 1024.19 1023.79 1023.29 1022.46 1022.11 1022.05 1021.49 1020.87 1020.25 1020.03 1019.64 1019.08 1018.84 1018.60 1018.28 1017.79 1017.20 1016.61 1016.08 1015.44 1014.92 1014.16 1013.77 1013.38 1012.92 1012.57 1011.97 1011.30 1010.65 1010.06 1009.12 1007.98 1007.03 1006.32 1005.33 1004.51 1003.65
1031.70 1032.17 1032.39 1031.74 1030.28 1027.66 1026.01 1024.57 1023.28 1022.55 1022.46 1022.05 1022.09 1021.57 1021.11 1020.67 1020.51 1019.76 1018.99 1018.74 1018.26 1017.81 1017.35 1016.79 1016.10 1015.54 1015.11 1014.43 1013.88 1013.53 1013.07 1012.51 1012.17 1011.63 1010.95 1010.30 1009.83 1008.99 1007.69 1006.86 1005.59 1004.35 1003.32 1003.02
1033.07 1033.33 1032.89 1031.70 1030.19 1027.50 1025.88 1024.85 1023.00 1022.94 1023.52 1022.52 1021.94 1021.34 1021.01 1020.88 1020.07 1019.22 1018.81 1018.34 1017.87 1017.45 1016.87 1016.30 1015.77 1015.33 1014.70 1013.95 1013.49 1013.10 1012.57 1012.05 1011.39 1011.03 1010.39 1009.67 1009.20 1008.55 1007.49 1006.61 1005.35 1003.48 1002.61 1003.11
1033.94 1034.02 1032.99 1031.50 1029.78 1027.18 1025.39 1024.83 1024.89 1024.20 1023.20 1022.58 1021.58 1020.78 1020.53 1019.89 1019.47 1019.00 1018.58 1018.10 1017.59 1017.08 1016.43 1015.85 1015.41 1014.81 1014.06 1013.46 1012.97 1012.27 1011.82 1011.12 1010.65 1010.14 1009.66 1009.10 1008.43 1007.72 1006.96 1006.18 1005.16 1003.88 1003.71 1003.78
1033.15 1032.23 1031.70 1031.05 1028.98 1026.35 1025.45 1025.21 1024.27 1023.84 1023.25 1022.15 1021.57 1020.26 1019.95 1019.58 1019.19 1018.76 1018.38 1017.85 1017.29 1016.77 1016.10 1015.43 1014.85 1014.08 1013.27 1012.72 1012.19 1011.35 1010.66 1010.22 1009.90 1009.47 1009.11 1008.67 1008.08 1007.23 1006.66 1005.80 1005.08 1004.63 1004.81 1004.34
1031.57 1030.80 1030.46 1029.40 1027.64 1026.29 1025.24 1024.57 1023.68 1023.14 1022.54 1021.94 1021.19 1020.34 1019.59 1019.31 1018.89 1018.63 1018.12 1017.58 1017.04 1016.31 1015.66 1014.87 1014.18 1013.36 1012.39 1011.57 1011.08 1010.51 1009.85 1009.49 1009.05 1008.81 1008.69 1008.19 1007.87 1007.46 1006.58 1005.47 1005.54 1005.14 1005.17 1005.38
1030.27 1029.89 1028.77 1028.17 1026.59 1025.64 1024.60 1024.06 1023.44 1022.79 1022.03 1021.40 1020.60 1020.15 1019.43 1019.07 1018.76 1018.46 1017.87 1017.32 1016.73 1016.06 1015.17 1014.40 1013.65 1012.72 1011.62 1010.85 1010.11 1009.33 1008.64 1008.46 1008.04 1008.13 1008.11 1007.95 1007.68 1007.16 1006.46 1005.94 1006.14 1006.00 1005.94 1005.98
1029.00 1028.22 1027.93 1026.68 1025.65 1025.58 1023.98 1023.15 1022.73 1022.44 1021.65 1020.98 1020.58 1019.84 1019.20 1018.96 1018.71 1018.19 1017.71 1017.17 1016.63 1015.77 1014.89 1014.06 1013.10 1012.11 1010.83 1009.89 1008.75 1007.79 1007.23 1007.10 1007.05 1007.60 1007.50 1007.48 1007.37 1006.82 1006.26 1006.54 1006.98 1006.80 1007.15 1007.69
Wind_Speed
5 8 4 5 2 4 4 4 6 5 6 8 4 11 11 9 9 10 8 8 9 8 6 6 7 7 7 9 9 9 10 11 9 8 8 7 9 9 6 5 6 7 7 8
8 4 3 5 4 2 3 4 6 8 7 7 9 15 6 10 6 7 7 8 7 7 9 8 9 9 9 7 7 8 8 8 7 5 5 3 7 5 7 5 6 5 7 7
1 1 4 3 4 6 3 3 5 7 6 5 7 7 4 5 5 7 7 4 6 7 9 10 11 8 8 8 9 9 9 7 6 8 4 4 5 4 3 8 8 8 9 7
1 3 5 5 3 3 3 4 4 9 9 5 5 9 2 2 3 4 6 7 6 7 6 6 7 9 8 8 7 7 10 11 8 7 6 4 5 9 7 9 9 11 11 10
4 7 7 6 1 3 4 7 7 7 6 2 6 1 6 2 2 3 6 6 7 6 6 8 8 8 9 7 8 8 7 11 11 9 6 5 4 6 7 7 12 14 12 9
2 4 5 5 2 4 8 6 6 5 1 2 6 2 6 2 2 2 2 5 5 7 7 6 7 7 8 7 8 9 7 9 10 11 11 7 9 9 10 10 12 10 9 8
7 2 1 4 4 6 8 9 7 7 4 4 2 6 8 2 2 3 5 8 7 7 7 7 7 8 9 9 9 8 9 10 11 10 11 10 9 9 8 11 10 14 10 8
4 6 4 6 2 3 2 4 4 7 4 11 12 8 6 3 4 6 7 8 7 7 7 7 7 7 7 7 8 8 8 8 10 9 11 9 9 6 7 9 12 10 8 8
6 5 3 4 4 3 4 3 2 5 5 3 5 7 3 2 8 8 8 7 9 8 8 7 7 7 7 7 7 7 9 10 11 12 12 12 13 14 12 14 12 9 10 8
2 8 3 5 1 2 5 3 2 1 4 6 6 10 11 4 8 10 10 10 10 8 9 7 6 6 6 7 6 7 7 8 8 10 11 11 14 11 12 12 13 13 11 8
3 3 6 2 2 5 4 3 3 1 1 3 7 7 5 10 15 13 12 10 10 9 8 7 7 6 6 7 7 6 6 8 10 10 11 12 13 14 12 11 13 12 11 10
3 2 5 9 8 4 5 4 5 3 7 5 5 19 15 11 8 13 17 14 11 8 8 8 7 7 6 8 8 7 6 6 7 11 11 13 13 14 12 13 15 15 12 8
4 3 6 9 5 4 3 1 2 3 1 16 10 14 6 18 19 17 13 15 13 11 9 7 7 7 7 8 8 8 6 7 8 9 12 13 13 14 14 14 15 17 13 8
5 4 9 11 8 1 8 8 6 6 8 12 16 22 21 19 16 19 17 10 9 9 7 6 7 7 8 10 8 7 7 6 7 9 11 13 14 14 13 14 15 15 13 11
3 4 4 7 8 6 15 20 19 14 19 9 23 17 21 19 15 14 9 8 8 7 7 7 7 8 8 9 10 8 6 6 6 9 11 13 14 13 13 14 14 15 14 13
2 6 3 21 15 13 18 19 20 19 17 14 18 21 19 16 8 6 7 6 6 7 8 8 8 10 10 10 11 8 6 7 5 8 11 13 14 14 14 14 14 15 14 12
4 4 1 7 2 4 8 10 6 4 5 6 6 7 5 7 7 6 7 6 7 8 8 9 11 9 10 10 11 7 6 7 7 8 10 12 13 15 15 14 14 14 13 13
4 1 3 5 3 2 8 5 6 7 11 6 6 7 6 7 6 7 6 5 8 8 8 10 8 8 9 7 8 6 6 7 8 9 12 11 11 14 15 14 13 13 10 10
5 3 4 4 2 7 7 8 8 6 7 7 9 9 9 7 6 7 6 4 7 8 8 8 7 7 7 8 9 7 8 8 6 10 12 11 10 13 15 16 14 14 11 10
5 1 2 5 7 6 1 10 18 5 4 15 14 12 12 8 5 6 6 6 8 8 7 8 9 7 7 9 8 7 10 9 9 9 12 11 9 12 15 15 17 14 10 10
5 5 4 5 4 8 2 18 14 1 6 22 17 17 13 8 7 6 8 7 6 7 9 9 8 9 10 10 7 10 10 11 12 9 11 9 10 11 13 13 15 9 11 15
3 2 4 2 4 7 8 20 4 8 14 17 20 19 13 13 7 7 8 8 9 10 10 10 9 10 11 10 9 13 11 11 11 10 11 9 11 10 10 11 10 6 10 17
3 8 5 5 6 20 16 17 11 15 17 18 17 21 9 9 6 7 7 8 8 11 11 10 9 12 11 9 9 13 14 12 11 12 10 9 10 11 10 12 4 6 10 13
6 5 8 11 12 13 15 19 19 14 14 15 14 13 7 7 7 8 8 8 8 10 11 12 12 14 14 16 16 16 15 12 12 11 9 8 8 10 9 3 3 6 9 13
8 3 6 8 16 13 13 9 9 16 17 17 15 10 8 6 8 7 7 9 10 10 12 12 14 15 20 18 17 16 15 12 11 8 8 7 6 7 7 6 3 6 8 13
5 10 5 11 17 12 18 17 16 15 18 17 15 9 7 5 8 6 7 7 8 11 13 13 16 19 21 20 19 17 14 11 10 6 6 4 4 6 5 9 9 18 20 23
Wind_Direction
2 61 22 296 277 257 260 251 274 258 289 327 262 289 289 304 42 52 49 45 46 35 337 5 6 3 9 14 10 5 2 351 359 355 350 345 341 323 317 317 303 297 284 252
13 102 326 292 27 320 306 299 303 298 339 344 298 303 18 39 44 48 47 34 24 13 2 353 353 359 3 346 350 351 347 336 337 344 330 308 305 307 300 302 295 288 287 275
178 42 12 30 33 12 28 11 323 278 300 252 325 294 121 31 56 34 31 15 17 3 350 350 352 341 333 341 336 336 326 316 312 323 327 322 307 297 299 321 309 303 287 273
258 6 13 23 31 14 304 339 279 312 351 304 88 278 110 80 77 37 14 16 7 348 338 326 331 331 327 314 307 313 323 323 329 322 325 357 322 321 333 309 304 303 289 267
283 10 6 44 6 351 281 323 278 258 227 0 360 334 278 241 329 360 10 351 332 328 329 332 328 314 304 316 315 306 309 324 327 323 307 297 299 298 289 327 307 305 291 276
15 346 37 336 331 11 308 319 288 12 75 285 166 135 277 242 262 241 287 294 303 313 311 310 300 309 318 332 338 334 326 315 323 325 321 332 305 313 321 335 308 290 294 299
338 9 337 38 18 351 25 28 336 338 355 276 215 346 251 229 291 201 243 276 285 298 305 309 322 327 321 331 328 333 341 331 326 327 324 317 303 299 300 299 291 303 295 303
11 326 22 324 125 292 358 122 168 274 265 291 315 255 274 215 252 274 277 282 299 294 285 301 314 320 318 326 327 334 338 325 324 321 319 314 303 296 299 309 302 296 291 295
351 269 306 40 340 34 320 58 154 260 265 276 239 300 297 313 297 287 291 312 299 294 297 303 316 314 317 322 326 329 328 324 332 328 326 325 321 327 316 306 307 306 300 293
334 295 330 318 19 92 128 220 339 353 309 298 303 303 276 308 286 294 295 292 283 290 307 302 296 303 307 311 304 323 333 309 318 320 321 324 310 308 305 307 303 311 319 306
32 166 284 352 262 272 353 318 66 101 118 238 302 268 226 309 304 304 293 266 271 278 282 276 274 287 300 297 299 301 316 315 323 325 320 322 314 314 305 307 316 314 319 312
291 207 270 241 274 240 181 168 108 125 284 225 240 272 274 275 292 304 300 284 276 281 280 285 283 296 299 293 295 293 295 306 311 316 323 322 318 309 314 319 316 321 312 302
332 317 320 329 6 9 54 59 121 126 127 270 266 272 300 313 314 306 290 286 285 291 295 297 304 300 295 283 278 284 300 312 313 320 320 321 325 319 324 312 320 323 315 287
311 208 204 249 250 298 290 277 257 207 263 283 257 279 292 290 302 304 313 291 287 302 303 314 322 304 290 285 276 283 293 296 306 315 320 325 328 319 315 314 323 327 317 304
64 273 281 263 272 281 283 283 279 249 250 247 277 281 279 286 292 294 290 308 329 336 339 332 309 295 295 287 290 287 280 297 304 312 321 324 318 320 318 320 321 327 308 316
324 259 299 283 275 270 274 277 270 271 266 249 255 270 276 281 279 280 315 332 337 331 320 313 299 295 293 294 288 284 290 299 297 310 316 318 318 323 323 322 323 316 311 316
244 243 151 264 300 287 276 255 253 265 220 214 243 261 306 305 321 293 301 320 311 305 303 304 301 302 302 297 294 291 293 301 310 307 307 315 315 317 320 317 319 310 311 310
236 171 223 270 330 270 244 289 247 261 281 270 277 275 276 270 282 284 274 283 303 305 302 307 299 302 304 299 299 295 299 292 302 307 311 312 309 315 315 314 305 302 299 289
187 273 289 295 238 281 300 9 349 331 311 23 342 317 307 309 334 295 284 271 279 282 285 277 281 278 282 291 289 295 300 299 295 305 307 302 301 314 312 312 300 299 289 271
72 358 143 314 300 292 75 333 338 278 258 353 342 315 321 324 319 273 277 297 295 293 283 290 292 294 295 292 287 291 295 294 291 292 300 296 293 307 306 309 309 302 259 138
344 329 223 270 265 272 45 350 317 19 318 327 317 305 300 280 219 264 297 291 284 278 292 297 292 291 285 287 289 288 288 284 293 283 294 281 304 300 303 300 306 300 127 119
207 181 258 307 251 270 346 348 356 311 310 304 308 308 285 281 281 282 291 293 300 303 304 301 293 291 289 289 288 289 285 280 280 283 291 291 300 301 303 310 297 104 100 113
288 193 201 206 241 294 305 289 276 299 291 301 306 307 271 278 271 293 284 296 295 296 298 298 287 292 290 281 269 284 290 300 292 287 293 285 292 306 310 301 48 107 123 114
265 214 246 282 270 268 293 297 293 295 294 305 306 295 284 276 294 291 293 298 306 308 306 302 299 297 292 308 305 295 292 288 278 275 281 287 292 302 308 286 81 127 121 108
254 179 241 261 277 282 267 267 298 304 305 307 311 290 290 303 299 286 295 306 308 308 307 309 307 306 305 309 301 292 284 274 263 266 263 272 288 293 293 75 90 119 95 117
180 245 240 268 280 274 274 289 295 297 296 300 305 294 300 294 293 295 299 300 307 308 315 316 316 310 315 309 302 293 278 250 239 230 240 248 277 303 99 93 81 82 93 98